Weather observations for the past three days for
Marysville, Yuba County Airport
Imperial (Metric)
Date Time (pdt) Wind (mph) Vis. (mi.) Weather Sky Cond. Temperature (ºF) Relative Humidity Wind Chill (°F) Heat Index (°F) Pressure Precipitation (in)
Air Dwpt 6 hour altimeter (in) sea level (mb) 1 hr 3 hr 6 hr
Max. Min.
23 22:53 SE 5 10.00 Fair CLR 88 55.9 108 87.1 34% 86 29.86 1011.3
23 21:53 S 5 10.00 Fair CLR 90 54 29% 88 29.84 1010.6
23 20:53 S 8 10.00 Fair CLR 96.1 55.9 26% 94 29.82 1009.9
23 19:53 SE 7 10.00 Fair CLR 102 55.9 22% 101 29.8 1009.4
23 18:53 S 6 10.00 Fair CLR 106 55 19% 105 29.79 1008.9
23 17:53 S 7 10.00 Fair CLR 108 54 17% 106 29.79 1008.8
23 16:53 SW 6 10.00 Fair CLR 108 50 108 96.1 14% 105 29.79 1009.0
23 15:53 SW 6 10.00 Fair CLR 107.1 54 17% 106 29.81 1009.5
23 14:53 SW 8 10.00 Fair CLR 107.1 57.9 20% 107 29.82 1010.0
23 13:53 SW 7 10.00 Fair CLR 105.1 53.1 18% 103 29.83 1010.4
23 12:53 Vrbl 5 10.00 Fair CLR 102.9 57 22% 102 29.84 1010.8
23 11:53 SW 6 10.00 Fair CLR 99 61 29% 100 29.85 1011.0
23 10:53 Vrbl 3 10.00 Fair CLR 96.1 57.9 96.1 73 28% 95 29.85 1011.2
23 09:53 SW 6 10.00 Fair CLR 91 55.9 31% 89 29.86 1011.3
23 08:53 SE 5 10.00 Fair CLR 86 54 33% 84 29.86 1011.3
23 07:53 S 5 10.00 Fair CLR 82.9 53.1 36% 82 29.85 1010.9
23 06:53 SE 3 10.00 Fair CLR 78.1 57.9 50% 79 29.83 1010.3
23 05:53 Calm 10.00 Fair CLR 73 57.9 59% 29.81 1009.9
23 04:53 Calm 10.00 Fair CLR 77 57.9 84.9 77 52% 79 29.8 1009.2
23 03:53 S 3 10.00 Fair CLR 78.1 59 52% 79 29.78 1008.6
23 02:53 SE 6 10.00 Fair CLR 81 59 47% 81 29.77 1008.4
23 01:53 SE 7 10.00 Fair CLR 80.1 60.1 51% 81 29.77 1008.2
23 00:53 SE 6 10.00 Fair CLR 81 60.1 49% 82 29.76 1008.0
22 23:53 S 6 10.00 Fair CLR 84 61 46% 84 29.75 1007.7
22 22:53 E 6 10.00 Fair CLR 84 62.1 106 84 48% 85 29.74 1007.4
22 21:53 Calm 10.00 Fair CLR 86 62.1 45% 87 29.73 1006.9
22 20:53 S 5 10.00 Fair CLR 91 55 30% 89 29.71 1006.3
22 19:53 S 5 10.00 Fair CLR 100 46.9 16% 96 29.7 1006.1
22 18:53 SW 6 10.00 A Few Clouds FEW110 102.9 55 20% 102 29.7 1005.9
22 17:53 SW 7 10.00 A Few Clouds FEW110 105.1 54 18% 103 29.7 1006.2
22 16:53 SW 7 10.00 A Few Clouds FEW110 105.1 57 106 89.1 20% 105 29.72 1006.7
22 15:53 Vrbl 7 10.00 Fair CLR 102.9 59 24% 103 29.74 1007.4
22 14:53 SW 8 10.00 Fair CLR 102 64 29% 105 29.76 1008.0
22 13:53 S 6 10.00 Fair CLR 100.9 64 30% 104 29.78 1008.7
22 12:53 W 3 10.00 Fair CLR 98.1 64 33% 101 29.8 1009.3
22 11:53 W 6 10.00 Fair CLR 93.9 63 36% 95 29.81 1009.8
22 10:53 Calm 10.00 Fair CLR 90 62.1 90 68 39% 90 29.82 1010.1
22 09:53 S 5 10.00 Fair CLR 84.9 59 42% 85 29.83 1010.3
22 08:53 Calm 10.00 Fair CLR 80.1 57.9 47% 81 29.83 1010.4
22 07:53 Calm 10.00 Fair CLR 75.9 57 52% 78 29.82 1010.1
22 06:53 Calm 10.00 Fair CLR 71.1 59 66% 29.82 1009.9
22 05:53 Calm 10.00 Fair CLR 68 59 73% 29.8 1009.5
22 04:53 Calm 10.00 Fair CLR 69.1 59 78.1 68 70% 29.8 1009.3
22 03:53 Calm 10.00 Fair CLR 69.1 57.9 68% 29.79 1009.2
22 02:53 NW 3 10.00 Fair CLR 70 59 68% 29.79 1009.0
22 01:53 W 6 10.00 Fair CLR 72 59 64% 29.79 1008.9
22 00:53 E 3 10.00 Fair CLR 75.9 60.1 58% 78 29.79 1009.2
21 23:53 Calm 10.00 Fair CLR 77 57.9 52% 79 29.8 1009.2
21 22:53 SE 6 10.00 Fair CLR 78.1 59 97 78.1 52% 79 29.8 1009.4
21 21:53 S 6 10.00 Fair CLR 81 60.1 49% 82 29.79 1009.0
21 20:53 S 5 10.00 Fair CLR 84 61 46% 84 29.78 1008.6
21 19:53 S 8 10.00 Fair CLR 91.9 62.1 37% 93 29.77 1008.3
21 18:53 SW 7 10.00 Fair CLR 95 64.9 37% 98 29.77 1008.3
21 17:53 SE 7 10.00 Fair CLR 97 64 34% 99 29.77 1008.4
21 16:53 S 9 10.00 Fair CLR 97 63 97 82.9 33% 99 29.79 1009.1
21 15:53 S 9 10.00 Fair CLR 96.1 62.1 32% 97 29.81 1009.7
21 14:53 Vrbl 7 10.00 Fair CLR 95 63 35% 96 29.83 1010.4
21 13:53 W 5 10.00 Fair CLR 93 60.1 33% 93 29.85 1010.9
21 12:53 Vrbl 3 10.00 Fair CLR 88 59 38% 87 29.86 1011.5
21 11:53 Vrbl 6 10.00 Fair CLR 86 55.9 36% 85 29.88 1012.0
21 10:53 SE 6 10.00 Fair CLR 82.9 55.9 82.9 68 40% 82 29.89 1012.5
21 09:53 S 10 10.00 Fair CLR 79 55 44% 80 29.89 1012.5
21 08:53 SE 10 10.00 Fair CLR 75 53.1 46% 78 29.89 1012.4
21 07:53 SE 9 10.00 Fair CLR 72 53.1 52% 29.88 1012.2
21 06:53 SE 6 10.00 Fair CLR 69.1 54 59% 29.87 1011.8
21 05:53 SE 3 10.00 Fair CLR 68 53.1 59% 29.86 1011.3
21 04:53 SW 6 10.00 Fair CLR 70 54 82 70 57% 29.84 1010.9
21 03:53 S 6 10.00 Fair CLR 72 54 53% 29.83 1010.4
21 02:53 S 8 10.00 Fair CLR 73 55.9 55% 29.83 1010.4
21 01:53 S 8 10.00 Fair CLR 75 55.9 52% 78 29.83 1010.4
21 00:53 S 9 10.00 Fair CLR 77 57 50% 79 29.82 1010.2
20 23:53 S 9 10.00 Fair CLR 80.1 57.9 47% 81 29.82 1010.1
Date Time (pdt) Wind (mph) Vis. (mi.) Weather Sky Cond. Air Dwpt Max. Min. Relative Humidity Wind Chill (°F) Heat Index (°F) altimeter (in) sea level (mb) 1 hr 3 hr 6 hr
6 hour
Temperature (ºF) Pressure Precipitation (in)